SWR125A EKCH-LSZH

Flight info

Callsign SWR125A
Flight time 1h 31m
Altitude 38000
Route NEXEN T503 GIMRU DCT MICOS DCT TOLGI DCT SWALM DCT OMOGI/N0436F390 T721 RILAX
Aircraft E190/M-SDE3GILORVW/S

Departure

Time 2026-04-26 13:38
Airport Copenhagen Kastrup Airport (EKCH)

Arrival

Time 2026-04-26 15:09
Airport Zürich Airport (LSZH)
Time Latitude Longitude Altitude Speed Heading
2026-04-26 13:25 55.62738 12.64265 22 ft 0 kts 303°
2026-04-26 13:27 55.62736 12.64269 22 ft 1 kts 303°
2026-04-26 13:27 55.62728 12.64290 27 ft 3 kts 299°
2026-04-26 13:27 55.62721 12.64321 27 ft 3 kts 269°
2026-04-26 13:28 55.62724 12.64350 26 ft 3 kts 223°
2026-04-26 13:28 55.62740 12.64370 27 ft 3 kts 206°
2026-04-26 13:28 55.62749 12.64378 22 ft 1 kts 207°
2026-04-26 13:28 55.62750 12.64379 22 ft 0 kts 207°
2026-04-26 13:31 55.62749 12.64377 22 ft 1 kts 207°
2026-04-26 13:31 55.62735 12.64365 27 ft 6 kts 207°
2026-04-26 13:31 55.62676 12.64318 23 ft 11 kts 204°
2026-04-26 13:31 55.62606 12.64251 22 ft 12 kts 218°
2026-04-26 13:32 55.62515 12.64233 22 ft 17 kts 135°
2026-04-26 13:32 55.62432 12.64421 22 ft 19 kts 137°
2026-04-26 13:32 55.62325 12.64414 22 ft 18 kts 197°
2026-04-26 13:32 55.62179 12.64320 23 ft 25 kts 202°
2026-04-26 13:33 55.62010 12.64177 22 ft 19 kts 207°
2026-04-26 13:33 55.61938 12.64225 22 ft 14 kts 99°
2026-04-26 13:33 55.61948 12.64437 22 ft 14 kts 103°
2026-04-26 13:33 55.61854 12.64526 25 ft 20 kts 171°
2026-04-26 13:34 55.61770 12.64549 24 ft 12 kts 169°
2026-04-26 13:34 55.61655 12.64540 22 ft 20 kts 207°
2026-04-26 13:34 55.61549 12.64417 25 ft 19 kts 212°
2026-04-26 13:34 55.61470 12.64328 23 ft 21 kts 213°
2026-04-26 13:35 55.61291 12.64121 22 ft 25 kts 214°
2026-04-26 13:35 55.61134 12.63934 22 ft 29 kts 213°
2026-04-26 13:35 55.60964 12.63734 23 ft 24 kts 213°
2026-04-26 13:35 55.60864 12.63624 23 ft 16 kts 212°
2026-04-26 13:36 55.60779 12.63622 22 ft 11 kts 139°
2026-04-26 13:36 55.60728 12.63736 23 ft 12 kts 128°
2026-04-26 13:36 55.60684 12.63847 26 ft 9 kts 94°
2026-04-26 13:36 55.60705 12.63906 24 ft 0 kts 46°
2026-04-26 13:37 55.60772 12.64014 25 ft 41 kts 41°
2026-04-26 13:37 55.61155 12.64613 22 ft 105 kts 41°
2026-04-26 13:37 55.61848 12.65669 28 ft 156 kts 40°
2026-04-26 13:38 55.62730 12.67059 418 ft 178 kts 37°
2026-04-26 13:38 55.63671 12.68559 1284 ft 185 kts 38°
2026-04-26 13:38 55.64581 12.69982 2031 ft 168 kts 38°
2026-04-26 13:38 55.65514 12.71429 2559 ft 180 kts 36°
2026-04-26 13:39 55.66438 12.72891 3055 ft 180 kts 36°
2026-04-26 13:39 55.67517 12.74393 2921 ft 215 kts 33°
2026-04-26 13:39 55.68763 12.76152 3057 ft 240 kts 37°
2026-04-26 13:39 55.70083 12.78137 3362 ft 256 kts 36°
2026-04-26 13:40 55.71452 12.80187 3934 ft 260 kts 37°
2026-04-26 13:40 55.72821 12.82545 3820 ft 290 kts 48°
2026-04-26 13:40 55.73800 12.85713 4340 ft 294 kts 70°
2026-04-26 13:40 55.74142 12.89193 5144 ft 289 kts 88°
2026-04-26 13:41 55.73682 12.92610 5863 ft 285 kts 118°
2026-04-26 13:41 55.72346 12.95169 6387 ft 285 kts 150°
2026-04-26 13:41 55.70479 12.96192 6842 ft 282 kts 182°
2026-04-26 13:41 55.68617 12.95394 7253 ft 275 kts 214°
2026-04-26 13:42 55.67053 12.93467 7677 ft 276 kts 219°
2026-04-26 13:42 55.65282 12.92044 8067 ft 287 kts 195°
2026-04-26 13:42 55.63268 12.91694 8477 ft 293 kts 187°
2026-04-26 13:42 55.61292 12.90948 8873 ft 290 kts 205°
2026-04-26 13:43 55.59475 12.89409 9311 ft 291 kts 215°
2026-04-26 13:43 55.57782 12.87452 9786 ft 292 kts 221°
2026-04-26 13:43 55.56151 12.85258 10138 ft 301 kts 225°
2026-04-26 13:43 55.54630 12.82689 10274 ft 313 kts 231°
2026-04-26 13:44 55.53102 12.79925 10758 ft 315 kts 231°
2026-04-26 13:44 55.51578 12.77115 11257 ft 317 kts 234°
2026-04-26 13:44 55.50145 12.74165 11760 ft 318 kts 236°
2026-04-26 13:44 55.48710 12.71174 12287 ft 321 kts 236°
2026-04-26 13:45 55.47266 12.68150 12803 ft 323 kts 236°
2026-04-26 13:45 55.45813 12.65109 13331 ft 326 kts 236°
2026-04-26 13:45 55.44345 12.62048 13861 ft 328 kts 236°
2026-04-26 13:45 55.42869 12.58960 14374 ft 331 kts 236°
2026-04-26 13:46 55.41384 12.55854 14880 ft 332 kts 236°
2026-04-26 13:46 55.39890 12.52744 15385 ft 334 kts 236°
2026-04-26 13:46 55.38379 12.49619 15893 ft 335 kts 237°
2026-04-26 13:46 55.36874 12.46475 16385 ft 337 kts 237°
2026-04-26 13:47 55.35358 12.43315 16888 ft 339 kts 237°
2026-04-26 13:47 55.33831 12.40141 17398 ft 341 kts 237°
2026-04-26 13:47 55.32298 12.36948 17902 ft 342 kts 237°
2026-04-26 13:47 55.30752 12.33740 18413 ft 345 kts 237°
2026-04-26 13:48 55.29211 12.30572 18891 ft 346 kts 237°
2026-04-26 13:48 55.27657 12.27330 19347 ft 349 kts 237°
2026-04-26 13:48 55.26078 12.24095 19803 ft 350 kts 237°
2026-04-26 13:48 55.24491 12.20829 20267 ft 352 kts 237°
2026-04-26 13:49 55.22895 12.17562 20761 ft 354 kts 234°
2026-04-26 13:49 55.21156 12.14455 21192 ft 359 kts 230°
2026-04-26 13:49 55.19323 12.11451 21612 ft 362 kts 229°
2026-04-26 13:49 55.17390 12.08587 21993 ft 367 kts 223°
2026-04-26 13:50 55.15333 12.05902 22385 ft 369 kts 223°
2026-04-26 13:50 55.13255 12.03221 22769 ft 372 kts 222°
2026-04-26 13:50 55.11163 12.00550 23162 ft 374 kts 222°
2026-04-26 13:50 55.09084 11.97902 23538 ft 376 kts 222°
2026-04-26 13:51 55.06967 11.95208 23913 ft 378 kts 222°
2026-04-26 13:51 55.04832 11.92494 24260 ft 379 kts 222°
2026-04-26 13:51 55.02695 11.89779 24611 ft 381 kts 222°
2026-04-26 13:51 55.00547 11.87057 24957 ft 382 kts 222°
2026-04-26 13:52 54.98398 11.84332 25308 ft 384 kts 222°
2026-04-26 13:52 54.96232 11.81594 25638 ft 385 kts 222°
2026-04-26 13:52 54.94061 11.78847 25957 ft 385 kts 222°
2026-04-26 13:52 54.91907 11.76135 26274 ft 387 kts 222°
2026-04-26 13:53 54.89700 11.73350 26570 ft 388 kts 222°
2026-04-26 13:53 54.87537 11.70632 26851 ft 389 kts 222°
2026-04-26 13:53 54.85338 11.67866 27127 ft 391 kts 222°
2026-04-26 13:53 54.83096 11.65161 27388 ft 393 kts 220°
2026-04-26 13:54 54.80908 11.62340 27648 ft 392 kts 223°
2026-04-26 13:54 54.78695 11.59550 27906 ft 394 kts 221°
2026-04-26 13:54 54.76471 11.56759 28169 ft 396 kts 222°
2026-04-26 13:55 54.71983 11.51164 28692 ft 398 kts 221°
2026-04-26 13:55 54.70490 11.49306 28846 ft 399 kts 221°
2026-04-26 13:55 54.65229 11.42774 29433 ft 402 kts 221°
2026-04-26 13:56 54.62957 11.39957 29671 ft 403 kts 221°
2026-04-26 13:56 54.60669 11.37127 29844 ft 406 kts 221°
2026-04-26 13:56 54.58359 11.34232 29887 ft 411 kts 221°
2026-04-26 13:56 54.56019 11.31387 30173 ft 411 kts 220°
2026-04-26 13:57 54.53689 11.28537 30465 ft 410 kts 220°
2026-04-26 13:57 54.51360 11.25703 30694 ft 410 kts 221°
2026-04-26 13:57 54.49036 11.22873 30924 ft 409 kts 220°
2026-04-26 13:57 54.46707 11.20043 31117 ft 409 kts 220°
2026-04-26 13:58 54.44390 11.17233 31331 ft 408 kts 220°
2026-04-26 13:58 54.42069 11.14419 31525 ft 408 kts 220°
2026-04-26 13:58 54.39748 11.11611 31721 ft 407 kts 220°
2026-04-26 13:58 54.37428 11.08809 31921 ft 407 kts 220°
2026-04-26 13:59 54.35112 11.06013 32122 ft 407 kts 220°
2026-04-26 13:59 54.32755 11.03327 32298 ft 410 kts 215°
2026-04-26 13:59 54.30225 11.01019 32480 ft 412 kts 212°
2026-04-26 14:00 54.22310 10.95322 33054 ft 414 kts 206°
2026-04-26 14:00 54.19609 10.93620 33255 ft 413 kts 206°
2026-04-26 14:00 54.17821 10.92494 33376 ft 413 kts 206°
2026-04-26 14:01 54.14213 10.90233 33628 ft 412 kts 206°
2026-04-26 14:01 54.11517 10.88546 33818 ft 412 kts 206°
2026-04-26 14:04 54.08953 10.86965 33992 ft 412 kts 205°
2026-04-26 14:04 54.06261 10.85283 34149 ft 411 kts 206°
2026-04-26 14:04 54.03602 10.83623 34139 ft 406 kts 206°
2026-04-26 14:05 53.98344 10.80335 34114 ft 398 kts 206°
2026-04-26 14:05 53.93179 10.77119 34259 ft 397 kts 206°
2026-04-26 14:06 53.87961 10.73880 34416 ft 400 kts 206°
2026-04-26 14:06 53.82703 10.70640 34579 ft 403 kts 206°
2026-04-26 14:07 53.77410 10.67377 34736 ft 406 kts 205°
2026-04-26 14:07 53.72085 10.64105 34877 ft 409 kts 205°
2026-04-26 14:08 53.66747 10.60832 35012 ft 406 kts 205°
2026-04-26 14:08 53.61464 10.57605 35150 ft 407 kts 205°
2026-04-26 14:09 53.56139 10.54359 35286 ft 407 kts 205°
2026-04-26 14:09 53.53444 10.52719 35394 ft 407 kts 205°
2026-04-26 14:09 53.50821 10.51124 35497 ft 406 kts 205°
2026-04-26 14:09 53.48163 10.49513 35611 ft 406 kts 205°
2026-04-26 14:10 53.45511 10.47907 35742 ft 405 kts 205°
2026-04-26 14:10 53.42821 10.46278 35864 ft 405 kts 205°
2026-04-26 14:10 53.40214 10.44704 35985 ft 404 kts 205°
2026-04-26 14:10 53.37557 10.43101 36109 ft 404 kts 205°
2026-04-26 14:11 53.32277 10.39920 36343 ft 402 kts 205°
2026-04-26 14:11 53.29619 10.38473 36459 ft 401 kts 204°
2026-04-26 14:11 53.26938 10.37147 36554 ft 402 kts 198°
2026-04-26 14:12 53.24239 10.35977 36671 ft 399 kts 201°
2026-04-26 14:12 53.21569 10.34690 36804 ft 398 kts 201°
2026-04-26 14:12 53.18915 10.33412 36925 ft 396 kts 201°
2026-04-26 14:12 53.16277 10.32136 37045 ft 394 kts 201°
2026-04-26 14:13 53.11032 10.29601 37282 ft 389 kts 201°
2026-04-26 14:13 53.08469 10.28361 37385 ft 387 kts 201°
2026-04-26 14:14 53.03321 10.25891 37571 ft 383 kts 201°
2026-04-26 14:14 52.98226 10.23449 37757 ft 378 kts 201°
2026-04-26 14:14 52.95703 10.22237 37865 ft 375 kts 201°
2026-04-26 14:15 52.93205 10.21049 37965 ft 372 kts 201°
2026-04-26 14:15 52.88285 10.18701 38181 ft 363 kts 201°
2026-04-26 14:16 52.83471 10.16408 38278 ft 357 kts 201°
2026-04-26 14:16 52.78720 10.14151 38278 ft 352 kts 201°
2026-04-26 14:17 52.74045 10.11937 38291 ft 347 kts 201°
2026-04-26 14:17 52.69479 10.09778 38311 ft 340 kts 201°
2026-04-26 14:18 52.64984 10.07657 38298 ft 331 kts 201°
2026-04-26 14:18 52.60603 10.05595 38223 ft 323 kts 201°
2026-04-26 14:19 52.56345 10.03593 38072 ft 313 kts 201°
2026-04-26 14:19 52.54269 10.02621 37950 ft 309 kts 201°
2026-04-26 14:19 52.52189 10.01643 37337 ft 315 kts 201°
2026-04-26 14:19 52.49981 10.00598 35781 ft 346 kts 201°
2026-04-26 14:20 52.47659 9.99528 35535 ft 350 kts 201°
2026-04-26 14:20 52.42978 9.97343 35616 ft 352 kts 201°
2026-04-26 14:21 52.38191 9.95110 35453 ft 362 kts 201°
2026-04-26 14:21 52.33263 9.92817 35238 ft 374 kts 200°
2026-04-26 14:21 52.30733 9.91648 35119 ft 381 kts 200°
2026-04-26 14:22 52.28159 9.90455 35009 ft 388 kts 200°
2026-04-26 14:22 52.25531 9.89239 34900 ft 395 kts 200°
2026-04-26 14:22 52.22857 9.88002 34783 ft 403 kts 200°
2026-04-26 14:22 52.20140 9.86748 34669 ft 410 kts 200°
2026-04-26 14:23 52.17373 9.85473 34554 ft 417 kts 200°
2026-04-26 14:23 52.14573 9.84184 34438 ft 417 kts 200°
2026-04-26 14:23 52.11794 9.82908 34358 ft 414 kts 200°
2026-04-26 14:24 52.06230 9.80353 34300 ft 417 kts 199°
2026-04-26 14:24 52.00644 9.77795 34301 ft 416 kts 199°
2026-04-26 14:25 51.95094 9.75260 34297 ft 417 kts 199°
2026-04-26 14:25 51.89487 9.72705 34303 ft 422 kts 199°
2026-04-26 14:26 51.83771 9.70111 34300 ft 429 kts 199°
2026-04-26 14:26 51.77973 9.67483 34289 ft 436 kts 199°
2026-04-26 14:27 51.72080 9.64821 34297 ft 442 kts 199°
2026-04-26 14:27 51.66110 9.62130 34285 ft 449 kts 199°
2026-04-26 14:28 51.60066 9.59416 34293 ft 454 kts 198°
2026-04-26 14:28 51.53949 9.56685 34289 ft 459 kts 198°
2026-04-26 14:29 51.47770 9.53918 34297 ft 463 kts 198°
2026-04-26 14:29 51.41577 9.51154 34280 ft 461 kts 198°
2026-04-26 14:30 51.35405 9.48410 34285 ft 460 kts 198°
2026-04-26 14:30 51.29236 9.45678 34282 ft 460 kts 198°
2026-04-26 14:31 51.23109 9.42970 34281 ft 460 kts 198°
2026-04-26 14:31 51.16949 9.40255 34262 ft 459 kts 198°
2026-04-26 14:32 51.10788 9.37548 34277 ft 459 kts 198°
2026-04-26 14:32 51.04627 9.34849 34292 ft 459 kts 198°
2026-04-26 14:33 50.98464 9.32156 34287 ft 459 kts 198°
2026-04-26 14:33 50.92294 9.29464 34288 ft 459 kts 198°
2026-04-26 14:34 50.86125 9.26785 34276 ft 460 kts 198°
2026-04-26 14:34 50.79956 9.24112 34276 ft 460 kts 198°
2026-04-26 14:35 50.73779 9.21446 34269 ft 460 kts 197°
2026-04-26 14:35 50.67504 9.19693 34270 ft 462 kts 191°
2026-04-26 14:36 50.62253 9.18581 34271 ft 462 kts 189°
2026-04-26 14:36 50.55870 9.17269 34265 ft 463 kts 190°
2026-04-26 14:37 50.49485 9.15945 34260 ft 463 kts 190°
2026-04-26 14:37 50.43100 9.14624 34262 ft 464 kts 190°
2026-04-26 14:38 50.36692 9.13305 34269 ft 464 kts 190°
2026-04-26 14:38 50.30267 9.11986 34260 ft 465 kts 190°
2026-04-26 14:39 50.23892 9.10682 34266 ft 465 kts 190°
2026-04-26 14:39 50.17464 9.09371 34256 ft 466 kts 190°
2026-04-26 14:40 50.10997 9.08056 34256 ft 471 kts 190°
2026-04-26 14:40 50.05259 9.06892 34255 ft 467 kts 190°
2026-04-26 14:41 49.98814 9.05587 34250 ft 468 kts 190°
2026-04-26 14:41 49.92360 9.04285 34253 ft 468 kts 190°
2026-04-26 14:42 49.85933 9.02991 34244 ft 468 kts 190°
2026-04-26 14:42 49.79479 9.01693 34244 ft 467 kts 190°
2026-04-26 14:43 49.73030 9.00402 34242 ft 467 kts 190°
2026-04-26 14:43 49.66574 8.99147 34229 ft 467 kts 192°
2026-04-26 14:44 49.60214 8.97450 33963 ft 454 kts 193°
2026-04-26 14:44 49.57137 8.96598 33406 ft 446 kts 193°
2026-04-26 14:44 49.54102 8.95760 32831 ft 438 kts 193°
2026-04-26 14:44 49.51127 8.94943 32191 ft 433 kts 193°
2026-04-26 14:45 49.48158 8.94125 31314 ft 434 kts 192°
2026-04-26 14:45 49.46189 8.93586 30743 ft 435 kts 192°
2026-04-26 14:45 49.42196 8.92494 29458 ft 437 kts 192°
2026-04-26 14:45 49.39214 8.91680 28703 ft 432 kts 192°
2026-04-26 14:46 49.36313 8.90888 27991 ft 427 kts 192°
2026-04-26 14:46 49.33410 8.90097 27300 ft 422 kts 192°
2026-04-26 14:46 49.30524 8.89310 26633 ft 417 kts 192°
2026-04-26 14:46 49.27685 8.88539 25975 ft 413 kts 192°
2026-04-26 14:47 49.24866 8.87774 25336 ft 409 kts 192°
2026-04-26 14:47 49.22084 8.87029 24711 ft 404 kts 192°
2026-04-26 14:47 49.19325 8.86270 24105 ft 400 kts 192°
2026-04-26 14:47 49.16592 8.85526 23462 ft 396 kts 193°
2026-04-26 14:48 49.13899 8.84786 22770 ft 391 kts 193°
2026-04-26 14:48 49.11226 8.84057 22087 ft 388 kts 192°
2026-04-26 14:48 49.09476 8.83581 21656 ft 385 kts 192°
2026-04-26 14:48 49.06846 8.82866 21017 ft 382 kts 192°
2026-04-26 14:49 49.03399 8.81929 20184 ft 377 kts 192°
2026-04-26 14:49 49.00822 8.81229 19584 ft 374 kts 192°
2026-04-26 14:49 48.99098 8.80761 19188 ft 372 kts 192°
2026-04-26 14:49 48.96554 8.80073 18594 ft 369 kts 192°
2026-04-26 14:50 48.94039 8.79393 17951 ft 366 kts 192°
2026-04-26 14:50 48.91549 8.78712 17324 ft 362 kts 192°
2026-04-26 14:50 48.89079 8.78052 16711 ft 359 kts 192°
2026-04-26 14:50 48.86633 8.77394 16111 ft 356 kts 192°
2026-04-26 14:51 48.84240 8.76750 15536 ft 353 kts 192°
2026-04-26 14:51 48.81829 8.76099 14944 ft 350 kts 192°
2026-04-26 14:51 48.79442 8.75462 14403 ft 347 kts 192°
2026-04-26 14:51 48.77401 8.74910 13927 ft 344 kts 191°
2026-04-26 14:52 48.74993 8.74273 13313 ft 341 kts 192°
2026-04-26 14:52 48.72663 8.73645 12750 ft 338 kts 191°
2026-04-26 14:52 48.70368 8.73036 12365 ft 330 kts 192°
2026-04-26 14:52 48.68102 8.72425 12273 ft 331 kts 191°
2026-04-26 14:53 48.65826 8.71820 12229 ft 333 kts 192°
2026-04-26 14:53 48.63541 8.71207 12218 ft 334 kts 192°
2026-04-26 14:53 48.61255 8.70603 12217 ft 333 kts 192°
2026-04-26 14:53 48.58968 8.69992 12208 ft 334 kts 191°
2026-04-26 14:54 48.56709 8.69395 12197 ft 333 kts 192°
2026-04-26 14:54 48.54429 8.68791 12185 ft 333 kts 192°
2026-04-26 14:54 48.52146 8.68181 12195 ft 333 kts 192°
2026-04-26 14:54 48.49856 8.67571 12197 ft 334 kts 191°
2026-04-26 14:55 48.47563 8.66971 12191 ft 333 kts 191°
2026-04-26 14:55 48.45273 8.66369 12197 ft 334 kts 192°
2026-04-26 14:55 48.42987 8.65760 12188 ft 333 kts 192°
2026-04-26 14:55 48.40695 8.65204 12196 ft 333 kts 191°
2026-04-26 14:56 48.38413 8.64554 12204 ft 333 kts 193°
2026-04-26 14:56 48.36145 8.63873 12197 ft 333 kts 193°
2026-04-26 14:56 48.33871 8.63189 12193 ft 333 kts 193°
2026-04-26 14:56 48.31635 8.62523 12206 ft 333 kts 192°
2026-04-26 14:57 48.29387 8.61843 12194 ft 332 kts 193°
2026-04-26 14:57 48.27118 8.61161 12196 ft 333 kts 192°
2026-04-26 14:57 48.24848 8.60475 12198 ft 333 kts 193°
2026-04-26 14:57 48.22569 8.59788 12198 ft 333 kts 193°
2026-04-26 14:58 48.20296 8.59113 12193 ft 333 kts 192°
2026-04-26 14:58 48.18029 8.58437 12197 ft 333 kts 193°
2026-04-26 14:58 48.15756 8.57752 12185 ft 333 kts 193°
2026-04-26 14:58 48.13488 8.57076 12191 ft 332 kts 193°
2026-04-26 14:59 48.11217 8.56389 12189 ft 333 kts 193°
2026-04-26 14:59 48.08936 8.55713 12193 ft 334 kts 192°
2026-04-26 14:59 48.06656 8.55034 12200 ft 333 kts 192°
2026-04-26 14:59 48.05152 8.54592 12194 ft 333 kts 193°
2026-04-26 15:00 48.02144 8.53692 12194 ft 332 kts 193°
2026-04-26 15:00 47.99875 8.53014 12207 ft 332 kts 193°
2026-04-26 15:00 47.97589 8.52415 12128 ft 334 kts 185°
2026-04-26 15:00 47.95265 8.52353 12081 ft 334 kts 182°
2026-04-26 15:01 47.92953 8.52223 11599 ft 333 kts 184°
2026-04-26 15:01 47.90662 8.52039 11252 ft 324 kts 185°
2026-04-26 15:01 47.88453 8.51875 11044 ft 312 kts 184°
2026-04-26 15:01 47.86315 8.51717 10819 ft 302 kts 185°
2026-04-26 15:02 47.84240 8.51582 10573 ft 294 kts 184°
2026-04-26 15:02 47.82206 8.51449 10191 ft 291 kts 184°
2026-04-26 15:02 47.80186 8.51296 9755 ft 290 kts 185°
2026-04-26 15:02 47.78186 8.51139 9497 ft 283 kts 184°
2026-04-26 15:03 47.76266 8.50977 9400 ft 270 kts 184°
2026-04-26 15:03 47.74419 8.50793 9115 ft 270 kts 186°
2026-04-26 15:03 47.72574 8.50527 9073 ft 255 kts 187°
2026-04-26 15:03 47.70886 8.50261 8870 ft 240 kts 186°
2026-04-26 15:04 47.69185 8.49970 8139 ft 250 kts 187°
2026-04-26 15:04 47.67469 8.49671 7694 ft 245 kts 187°
2026-04-26 15:04 47.65785 8.49367 7284 ft 242 kts 187°
2026-04-26 15:04 47.64159 8.49060 7029 ft 231 kts 187°
2026-04-26 15:05 47.62616 8.48760 6817 ft 220 kts 187°
2026-04-26 15:05 47.61575 8.48530 6392 ft 224 kts 188°
2026-04-26 15:05 47.59609 8.48095 5698 ft 199 kts 184°
2026-04-26 15:05 47.58336 8.47890 5427 ft 173 kts 186°
2026-04-26 15:06 47.57142 8.47601 4721 ft 176 kts 187°
2026-04-26 15:06 47.55919 8.47302 3969 ft 180 kts 180°
2026-04-26 15:06 47.54724 8.47203 3513 ft 162 kts 173°
2026-04-26 15:06 47.53652 8.47494 3131 ft 151 kts 158°
2026-04-26 15:07 47.51925 8.48900 2497 ft 140 kts 141°
2026-04-26 15:07 47.51160 8.49764 2170 ft 136 kts 137°
2026-04-26 15:07 47.50444 8.50611 2004 ft 128 kts 134°
2026-04-26 15:08 47.49808 8.51460 1841 ft 123 kts 134°
2026-04-26 15:08 47.49158 8.52323 1698 ft 130 kts 133°
2026-04-26 15:08 47.48475 8.53248 1529 ft 134 kts 134°
2026-04-26 15:08 47.47823 8.54147 1396 ft 119 kts 135°
2026-04-26 15:09 47.47300 8.54863 1395 ft 89 kts 137°
2026-04-26 15:09 47.46942 8.55348 1399 ft 59 kts 137°
2026-04-26 15:09 47.46645 8.55654 1398 ft 41 kts 159°
2026-04-26 15:09 47.46457 8.55728 1398 ft 26 kts 164°
2026-04-26 15:10 47.46308 8.55862 1401 ft 25 kts 137°
2026-04-26 15:10 47.46231 8.55963 1399 ft 25 kts 138°
2026-04-26 15:10 47.46173 8.56044 1399 ft 13 kts 136°
2026-04-26 15:10 47.46063 8.56196 1400 ft 27 kts 139°
2026-04-26 15:11 47.45932 8.56314 1402 ft 19 kts 179°
2026-04-26 15:11 47.45794 8.56305 1399 ft 21 kts 182°
2026-04-26 15:11 47.45644 8.56269 1400 ft 23 kts 191°
2026-04-26 15:11 47.45605 8.56328 1401 ft 10 kts 95°
2026-04-26 15:12 47.45593 8.56449 1397 ft 14 kts 115°
2026-04-26 15:12 47.45523 8.56540 1396 ft 14 kts 140°
2026-04-26 15:12 47.45527 8.56594 1402 ft 5 kts 340°
2026-04-26 15:12 47.45544 8.56575 1396 ft 0 kts 323°